timestamp,wind_dir_avg,wind_spd_avg,wind_spd_max_dir,wind_spd_gust,battery_voltage,lat,long
2024-02-07 00:04:00+00:00,26.0,18.48,29.0,23.26,12.17,47.59359,-54.27349
2024-02-07 00:14:01+00:00,32.0,16.2,35.0,19.03,12.25,47.59359,-54.27349
2024-02-07 00:24:01+00:00,27.0,18.56,40.0,22.18,12.25,47.59359,-54.27349
2024-02-07 00:34:01+00:00,28.0,16.83,28.0,19.51,12.25,47.59359,-54.27349
2024-02-07 00:44:01+00:00,32.0,16.6,41.0,19.97,12.25,47.59359,-54.27349
2024-02-07 00:54:01+00:00,29.0,15.87,32.0,18.46,12.25,47.59359,-54.27349
2024-02-07 01:04:01+00:00,33.0,16.64,35.0,18.95,12.25,47.59359,-54.27349
2024-02-07 01:14:00+00:00,31.0,15.51,31.0,16.68,12.17,47.59359,-54.27349
2024-02-07 01:24:00+00:00,26.0,14.97,21.0,18.84,12.17,47.59359,-54.27349
2024-02-07 01:34:00+00:00,30.0,16.33,14.0,19.05,12.17,47.59359,-54.27349
2024-02-07 01:44:00+00:00,29.0,14.69,29.0,16.58,12.17,47.59359,-54.27349
2024-02-07 01:54:00+00:00,28.0,11.88,26.0,13.32,12.17,47.59359,-54.27349
2024-02-07 02:04:00+00:00,37.0,15.56,43.0,18.79,12.17,47.59359,-54.27349
2024-02-07 02:14:00+00:00,30.0,13.12,35.0,15.01,12.17,47.59359,-54.27349
2024-02-07 02:24:00+00:00,27.0,16.32,24.0,19.19,12.17,47.59359,-54.27349
2024-02-07 02:34:00+00:00,33.0,16.95,42.0,19.38,12.17,47.59359,-54.27349
2024-02-07 02:44:00+00:00,33.0,15.28,29.0,17.03,12.17,47.59359,-54.27349
2024-02-07 02:54:00+00:00,29.0,15.51,30.0,18.81,12.17,47.59359,-54.27349
2024-02-07 03:04:00+00:00,31.0,16.43,29.0,20.36,12.17,47.59359,-54.27349
2024-02-07 03:14:00+00:00,21.0,15.35,22.0,17.0,12.17,47.59359,-54.27349
2024-02-07 03:24:00+00:00,28.0,14.65,28.0,17.14,12.17,47.59359,-54.27349
2024-02-07 03:34:00+00:00,33.0,16.31,34.0,19.08,12.17,47.59359,-54.27349
2024-02-07 03:44:00+00:00,32.0,16.06,31.0,18.29,12.17,47.59359,-54.27349
2024-02-07 03:54:00+00:00,32.0,15.01,33.0,17.05,12.17,47.59359,-54.27349
2024-02-07 04:04:00+00:00,26.0,13.0,21.0,15.39,12.17,47.59359,-54.27349
2024-02-07 04:14:00+00:00,28.0,14.16,22.0,17.21,12.17,47.59359,-54.27349
2024-02-07 04:24:00+00:00,32.0,15.09,31.0,17.27,12.17,47.59359,-54.27349
2024-02-07 04:34:00+00:00,39.0,15.75,32.0,17.94,12.17,47.59359,-54.27349
2024-02-07 04:44:00+00:00,37.0,14.66,32.0,17.05,12.17,47.59359,-54.27349
2024-02-07 04:54:00+00:00,37.0,14.61,43.0,17.84,12.17,47.59359,-54.27349
2024-02-07 05:04:00+00:00,34.0,11.92,34.0,13.94,12.17,47.59359,-54.27349
2024-02-07 05:14:01+00:00,29.0,10.97,31.0,11.77,12.09,47.59359,-54.27349
2024-02-07 05:24:01+00:00,34.0,13.91,21.0,16.19,12.09,47.59359,-54.27349
2024-02-07 05:34:01+00:00,32.0,12.16,36.0,13.75,12.09,47.59359,-54.27349
2024-02-07 05:44:01+00:00,34.0,12.53,37.0,14.38,12.09,47.59359,-54.27349
2024-02-07 05:54:01+00:00,35.0,15.2,32.0,17.02,12.09,47.59359,-54.27349
2024-02-07 06:04:01+00:00,33.0,14.19,32.0,18.21,12.09,47.59359,-54.27349
2024-02-07 06:14:00+00:00,34.0,14.38,34.0,15.87,12.09,47.59359,-54.27349
2024-02-07 06:24:00+00:00,35.0,11.88,31.0,14.09,12.09,47.59359,-54.27349
2024-02-07 06:34:00+00:00,39.0,13.56,37.0,15.11,12.09,47.59359,-54.27349
2024-02-07 06:44:00+00:00,27.0,13.94,29.0,16.13,12.09,47.59359,-54.27349
2024-02-07 06:54:00+00:00,32.0,12.26,36.0,14.25,12.09,47.59359,-54.27349
2024-02-07 07:04:00+00:00,29.0,10.31,25.0,11.14,12.09,47.59359,-54.27349
2024-02-07 07:14:01+00:00,31.0,14.08,34.0,16.87,12.09,47.59359,-54.27349
2024-02-07 07:24:01+00:00,29.0,12.57,31.0,14.75,12.09,47.59359,-54.27349
2024-02-07 07:34:01+00:00,25.0,12.74,25.0,14.54,12.09,47.59359,-54.27349
2024-02-07 07:44:01+00:00,28.0,11.72,31.0,12.9,12.09,47.59359,-54.27349
2024-02-07 07:54:01+00:00,20.0,12.34,20.0,13.48,12.09,47.59359,-54.27349
2024-02-07 08:04:01+00:00,20.0,13.7,20.0,15.11,12.09,47.59359,-54.27349
2024-02-07 08:14:00+00:00,25.0,12.89,19.0,16.95,12.09,47.59359,-54.27349
2024-02-07 08:24:00+00:00,32.0,11.32,41.0,14.28,12.09,47.59359,-54.27349
2024-02-07 08:34:00+00:00,24.0,10.13,27.0,11.26,12.09,47.59359,-54.27349
2024-02-07 08:44:00+00:00,27.0,11.28,26.0,12.0,12.09,47.59359,-54.27349
2024-02-07 08:54:00+00:00,11.0,11.78,8.0,13.78,12.09,47.59359,-54.27349
2024-02-07 09:04:00+00:00,23.0,12.08,23.0,13.18,12.09,47.59359,-54.27349
2024-02-07 09:14:01+00:00,15.0,10.87,20.0,12.29,12.01,47.59359,-54.27349
2024-02-07 09:24:01+00:00,17.0,11.75,12.0,13.54,12.01,47.59359,-54.27349
2024-02-07 09:34:01+00:00,15.0,13.65,21.0,15.43,12.01,47.59359,-54.27349
2024-02-07 09:44:01+00:00,18.0,12.4,12.0,13.45,12.01,47.59359,-54.27349
2024-02-07 09:54:01+00:00,22.0,12.18,22.0,13.42,12.01,47.59359,-54.27349
2024-02-07 10:04:01+00:00,28.0,11.43,25.0,12.85,12.01,47.59359,-54.27349
2024-02-07 10:14:00+00:00,26.0,11.33,21.0,12.17,12.01,47.59359,-54.27349
2024-02-07 10:24:00+00:00,16.0,12.07,14.0,13.55,12.01,47.59359,-54.27349
2024-02-07 10:34:00+00:00,18.0,11.18,21.0,13.03,12.01,47.59359,-54.27349
2024-02-07 10:44:00+00:00,11.0,10.57,9.0,12.16,12.01,47.59359,-54.27349
2024-02-07 10:54:00+00:00,12.0,9.43,11.0,10.82,12.01,47.59359,-54.27349
2024-02-07 11:04:00+00:00,28.0,10.69,24.0,11.82,12.01,47.59359,-54.27349
2024-02-07 11:14:00+00:00,12.0,9.28,14.0,11.56,11.93,47.59359,-54.27349
2024-02-07 11:24:00+00:00,9.0,9.35,12.0,10.44,11.93,47.59359,-54.27349
2024-02-07 11:34:00+00:00,12.0,11.39,13.0,11.4,11.93,47.59359,-54.27349
2024-02-07 11:44:00+00:00,9.0,8.14,12.0,9.66,11.93,47.59359,-54.27349
2024-02-07 11:54:00+00:00,13.0,9.61,10.0,11.06,11.93,47.59359,-54.27349
2024-02-07 12:04:00+00:00,10.0,8.05,10.0,10.48,11.93,47.59359,-54.27349
2024-02-07 12:14:00+00:00,8.0,8.87,10.0,10.95,12.49,47.59359,-54.27349
2024-02-07 12:24:00+00:00,10.0,9.88,10.0,11.1,12.49,47.59359,-54.27349
2024-02-07 12:34:00+00:00,23.0,9.53,28.0,10.69,12.49,47.59359,-54.27349
2024-02-07 12:44:00+00:00,0.0,10.1,2.0,11.13,12.49,47.59359,-54.27349
2024-02-07 12:54:00+00:00,7.0,7.07,0.0,8.48,12.49,47.59359,-54.27349
2024-02-07 13:04:00+00:00,10.0,7.31,11.0,11.13,12.49,47.59359,-54.27349
2024-02-07 13:14:00+00:00,27.0,9.95,26.0,11.4,14.0,47.59359,-54.27349
2024-02-07 13:24:00+00:00,315.0,0.01,34.0,0.0,14.0,47.59359,-54.27349
2024-02-07 13:34:00+00:00,315.0,0.01,38.0,0.0,14.0,47.59359,-54.27349
2024-02-07 13:44:00+00:00,315.0,0.01,12.0,0.0,14.0,47.59359,-54.27349
2024-02-07 13:54:00+00:00,8.0,9.25,4.0,10.34,14.0,47.59359,-54.27349
2024-02-07 14:04:00+00:00,12.0,10.37,13.0,11.05,14.0,47.59359,-54.27349
2024-02-07 14:14:00+00:00,12.0,9.96,13.0,10.39,13.68,47.59359,-54.27349
2024-02-07 14:24:00+00:00,4.0,8.57,2.0,9.73,13.68,47.59359,-54.27349
2024-02-07 14:34:00+00:00,3.0,10.15,2.0,11.71,13.68,47.59359,-54.27349
2024-02-07 14:44:00+00:00,11.0,8.66,11.0,10.21,13.68,47.59359,-54.27349
2024-02-07 14:54:00+00:00,23.0,6.98,23.0,7.0,13.68,47.59359,-54.27349
2024-02-07 15:04:00+00:00,11.0,9.21,11.0,10.44,13.68,47.59359,-54.27349
2024-02-07 15:14:00+00:00,13.0,9.15,7.0,10.02,13.53,47.59359,-54.27349
2024-02-07 15:24:00+00:00,8.0,8.73,13.0,10.52,13.53,47.59359,-54.27349
2024-02-07 15:34:00+00:00,12.0,9.91,13.0,10.58,13.53,47.59359,-54.27349
2024-02-07 15:44:00+00:00,30.0,10.42,27.0,11.71,13.53,47.59359,-54.27349
2024-02-07 15:54:00+00:00,3.0,7.7,5.0,9.02,13.53,47.59359,-54.27349
2024-02-07 16:04:00+00:00,358.0,9.61,355.0,10.39,13.53,47.59359,-54.27349
2024-02-07 16:14:00+00:00,14.0,7.68,16.0,9.02,13.44,47.59359,-54.27349
2024-02-07 16:24:00+00:00,15.0,6.69,17.0,7.52,13.44,47.59359,-54.27349
2024-02-07 16:34:00+00:00,9.0,8.98,13.0,10.65,13.44,47.59359,-54.27349
2024-02-07 16:44:00+00:00,14.0,7.46,13.0,7.76,13.44,47.59359,-54.27349
2024-02-07 16:54:00+00:00,6.0,9.12,359.0,10.33,13.44,47.59359,-54.27349
2024-02-07 17:04:00+00:00,315.0,0.01,14.0,0.0,13.44,47.59359,-54.27349
2024-02-07 17:14:00+00:00,10.0,8.17,12.0,9.51,14.32,47.59359,-54.27349
2024-02-07 17:24:00+00:00,9.0,9.23,12.0,10.91,14.32,47.59359,-54.27349
2024-02-07 17:34:00+00:00,11.0,9.68,11.0,11.19,14.32,47.59359,-54.27349
2024-02-07 17:44:00+00:00,24.0,6.03,24.0,6.11,14.32,47.59359,-54.27349
2024-02-07 17:54:00+00:00,359.0,8.18,359.0,9.26,14.32,47.59359,-54.27349
2024-02-07 18:04:00+00:00,5.0,9.16,4.0,10.52,14.32,47.59359,-54.27349
2024-02-07 18:14:00+00:00,1.0,8.73,0.0,10.09,13.37,47.59359,-54.27349
2024-02-07 18:24:00+00:00,8.0,8.35,5.0,9.97,13.37,47.59359,-54.27349
2024-02-07 18:34:00+00:00,12.0,8.91,13.0,9.25,13.37,47.59359,-54.27349
2024-02-07 18:44:00+00:00,9.0,8.54,10.0,10.55,13.37,47.59359,-54.27349
2024-02-07 18:54:00+00:00,14.0,8.27,12.0,9.03,13.37,47.59359,-54.27349
2024-02-07 19:04:00+00:00,5.0,8.43,0.0,9.78,13.37,47.59359,-54.27349
2024-02-07 19:14:00+00:00,7.0,10.38,10.0,12.05,13.37,47.59359,-54.27349
2024-02-07 19:24:00+00:00,26.0,11.6,26.0,11.62,13.37,47.59359,-54.27349
2024-02-07 19:34:00+00:00,34.0,9.88,35.0,10.11,13.37,47.59359,-54.27349
2024-02-07 19:44:00+00:00,21.0,8.87,30.0,10.81,13.37,47.59359,-54.27349
2024-02-07 19:54:00+00:00,6.0,8.88,2.0,10.12,13.37,47.59359,-54.27349
2024-02-07 20:04:00+00:00,34.0,9.91,32.0,10.47,13.37,47.59359,-54.27349
2024-02-07 20:14:00+00:00,30.0,9.65,30.0,10.13,13.05,47.59359,-54.27349
2024-02-07 20:24:00+00:00,13.0,8.25,10.0,9.51,13.05,47.59359,-54.27349
2024-02-07 20:34:00+00:00,11.0,9.75,12.0,10.99,13.05,47.59359,-54.27349
2024-02-07 20:44:00+00:00,12.0,8.88,12.0,9.05,13.05,47.59359,-54.27349
2024-02-07 20:54:00+00:00,13.0,8.82,9.0,9.55,13.05,47.59359,-54.27349
2024-02-07 21:04:00+00:00,31.0,10.42,32.0,10.66,13.05,47.59359,-54.27349
2024-02-07 21:14:00+00:00,33.0,9.93,33.0,9.95,12.49,47.59359,-54.27349
2024-02-07 21:24:00+00:00,315.0,0.01,35.0,0.0,12.49,47.59359,-54.27349
2024-02-07 21:34:00+00:00,7.0,7.12,4.0,8.52,12.49,47.59359,-54.27349
2024-02-07 21:44:00+00:00,15.0,6.93,13.0,8.47,12.49,47.59359,-54.27349
2024-02-07 21:54:00+00:00,9.0,8.86,12.0,10.65,12.49,47.59359,-54.27349
2024-02-07 22:04:00+00:00,10.0,7.22,10.0,9.37,12.49,47.59359,-54.27349
2024-02-07 22:14:00+00:00,25.0,5.9,19.0,6.83,12.33,47.59359,-54.27349
2024-02-07 22:24:00+00:00,13.0,7.16,14.0,7.97,12.33,47.59359,-54.27349
2024-02-07 22:34:00+00:00,14.0,6.92,20.0,7.77,12.33,47.59359,-54.27349
2024-02-07 22:44:00+00:00,10.0,7.92,9.0,8.46,12.33,47.59359,-54.27349
2024-02-07 22:54:00+00:00,34.0,8.54,32.0,9.23,12.33,47.59359,-54.27349
2024-02-07 23:04:00+00:00,8.0,7.03,4.0,8.1,12.33,47.59359,-54.27349
2024-02-07 23:14:00+00:00,15.0,8.33,33.0,9.96,12.25,47.59359,-54.27349
2024-02-07 23:24:00+00:00,16.0,9.0,23.0,10.54,12.25,47.59359,-54.27349
2024-02-07 23:34:00+00:00,12.0,7.8,17.0,9.07,12.25,47.59359,-54.27349
2024-02-07 23:44:00+00:00,17.0,6.64,35.0,8.27,12.25,47.59359,-54.27349
2024-02-07 23:54:00+00:00,20.0,6.89,33.0,9.05,12.25,47.59359,-54.27349
